{"data":{"norad_id":36112,"epoch":"2026-09-19T05:47:39.564096Z","epoch_age_seconds":123078,"freshness":"FRESH","line1":"1 36112U 09070B   26262.24143014  .00000024  00000+0  00000+0 0  9990","line2":"2 36112  65.0575  67.6088 0005952 133.0189  45.4037  2.13101103130430","mean_motion":2.13101103,"eccentricity":0.0005952,"inclination_deg":65.0575,"raan_deg":67.6088,"arg_perigee_deg":133.0189,"mean_anomaly_deg":45.4037,"bstar":0,"rev_number":13043,"period_min":675.73559203962,"perigee_km":19114.776588839,"apogee_km":19145.141426326,"semimajor_km":25508.096007583,"source":"CELESTRAK","updated_at":"2026-09-20T09:00:46.274421Z"}}